Theta_e
302 302 302 302 301 302 301 303 303 306 309 312 307 308 308 306 309 309 314 313 314 312 311 311 310 312 310 311 309 309 307 306 307 309 309 309 311 312 310 309 311 310 309 311
302 302 301 302 301 302 302 302 303 302 305 310 309 307 310 309 306 308 311 314 313 311 311 313 310 310 310 310 309 308 307 307 309 311 310 309 310 308 307 305 306 310 312 310
301 301 301 301 300 300 301 302 304 304 305 307 309 310 311 311 308 306 307 311 312 312 312 310 310 310 309 310 310 311 310 306 309 312 311 308 309 308 306 306 306 305 310 311
301 301 301 300 300 300 302 302 303 302 306 306 308 310 310 311 311 307 306 308 308 311 312 312 311 309 309 311 317 309 308 310 308 309 311 310 309 308 306 306 305 308 308 309
301 301 300 300 299 300 301 302 302 302 302 303 306 307 308 311 311 309 306 306 308 308 311 312 311 309 308 310 312 307 306 310 309 311 309 310 312 311 307 306 305 305 306 306
300 300 300 299 300 300 301 302 302 302 302 303 304 308 309 310 309 310 308 306 306 306 306 309 312 311 310 309 309 306 307 307 307 310 310 308 311 309 310 308 305 307 307 308
300 299 300 300 300 299 300 301 303 303 303 303 304 305 307 309 310 310 310 308 307 306 308 310 310 309 307 307 305 305 305 306 306 307 310 313 310 308 308 310 309 305 306 305
299 298 299 299 299 299 300 301 302 302 302 302 303 305 306 308 309 310 310 309 308 308 307 309 310 309 310 307 303 305 303 306 306 309 308 309 311 309 309 308 311 307 308 305
299 299 299 299 299 299 300 301 301 302 302 303 304 306 305 306 308 309 310 310 308 308 307 309 312 312 311 308 307 303 304 303 308 305 311 314 311 310 309 309 312 308 308 305
298 299 299 299 299 300 300 301 301 301 301 302 304 305 307 308 308 309 310 310 309 308 307 310 312 311 309 309 308 306 306 306 307 308 309 309 309 309 309 312 313 308 308 307
297 298 298 299 299 299 300 301 301 301 299 301 303 304 305 305 303 308 309 310 309 308 308 310 311 308 308 307 306 306 307 307 307 307 310 313 309 308 310 311 310 311 310 310
297 298 298 299 299 300 300 301 301 301 301 300 302 303 304 304 305 305 308 310 307 305 309 310 309 307 304 308 307 303 309 307 307 308 309 309 310 311 312 313 313 312 313 312
297 298 298 299 299 299 299 300 301 300 301 301 301 302 304 305 306 305 307 307 308 307 309 309 308 309 304 308 306 305 304 303 306 308 308 306 311 312 313 312 314 314 314 314
296 298 298 299 299 299 299 300 300 301 300 300 302 303 303 305 305 307 307 306 307 308 308 307 309 308 305 307 308 307 305 304 304 305 305 309 309 312 314 313 313 314 314 314
296 298 298 298 298 298 299 299 299 300 301 301 301 302 304 303 304 305 306 306 306 308 307 309 309 305 306 301 303 304 302 304 309 308 308 311 312 315 313 314 314 314 314 314
297 297 297 298 298 298 299 299 299 299 300 300 303 302 302 306 306 305 306 306 306 308 308 309 309 307 306 304 305 305 308 309 311 308 313 313 314 315 314 315 315 314 314 314
297 297 297 297 298 298 299 299 301 301 300 301 302 302 304 306 307 307 307 307 308 308 308 306 305 306 307 303 309 306 308 310 311 312 313 310 313 315 315 315 315 315 314 314
297 296 297 297 297 298 299 299 300 302 302 301 303 302 303 306 307 308 309 309 309 308 309 305 307 305 303 303 306 311 310 312 311 311 312 314 314 314 315 315 314 314 314 314
297 297 297 297 298 298 298 298 299 299 300 300 300 301 299 305 307 308 309 309 307 305 308 308 306 307 307 305 304 310 312 310 311 312 311 312 313 314 314 314 314 314 315 315
297 297 297 298 299 298 299 299 299 299 300 299 301 302 303 305 305 306 307 302 306 307 307 308 307 309 309 308 308 310 312 313 312 311 308 310 311 312 313 313 314 313 313 314
296 297 298 298 299 299 299 299 300 300 297 297 300 302 304 304 306 306 305 306 303 309 310 308 308 309 309 309 309 309 309 309 309 310 312 313 313 313 313 313 313 313 313 313
296 298 298 298 298 298 297 299 298 296 296 298 302 303 304 305 305 305 304 307 305 310 305 307 307 306 310 309 309 309 309 310 310 310 310 311 312 312 313 313 313 313 314 314
296 297 298 297 297 298 299 297 301 299 299 300 303 304 304 304 305 305 304 305 307 303 307 307 305 302 309 310 309 309 310 310 310 310 310 310 310 311 311 312 312 312 313 313
296 296 298 297 297 292 293 297 300 300 300 300 303 305 305 302 304 304 306 305 303 307 308 305 303 304 309 310 310 309 309 309 309 309 310 310 309 310 311 311 311 312 312 312
296 297 297 297 295 296 299 299 299 300 301 303 304 304 304 304 305 303 305 307 308 307 304 302 304 306 305 306 307 307 308 309 309 309 309 308 308 309 310 310 311 311 311 310
296 296 297 295 296 294 300 300 301 301 302 304 304 303 305 305 304 306 305 308 305 303 300 304 305 305 306 307 307 307 307 308 309 309 309 309 309 308 308 309 310 310 310 309
296 296 296 296 296 296 298 300 302 303 303 304 303 305 304 303 304 303 301 303 302 302 303 305 305 306 306 306 307 308 308 308 309 309 308 309 309 308 308 307 308 310 309 309
Wind_Speed
27 21 22 22 22 19 18 13 3 8 12 9 3 7 7 5 5 28 8 2 6 9 10 8 9 10 5 13 15 10 6 5 4 6 1 4 4 6 6 4 4 2 3 6
28 28 26 24 21 17 15 9 15 20 20 9 8 4 13 17 10 14 4 6 7 4 9 4 7 7 0 15 9 11 9 2 3 5 4 1 4 5 4 5 3 6 5 5
31 27 26 26 23 19 18 9 3 11 23 28 11 12 14 8 18 19 8 5 2 3 4 1 7 4 2 8 6 6 10 4 6 7 5 5 5 6 6 6 4 5 6 3
28 26 26 27 23 19 18 13 7 11 5 15 19 17 6 20 15 20 14 6 16 7 5 3 5 3 3 3 11 4 5 6 5 5 2 4 5 6 9 9 5 7 6 9
26 24 26 25 24 21 24 15 5 10 20 27 15 22 23 16 15 16 23 13 17 8 7 7 8 8 5 7 5 7 1 3 4 2 5 7 5 7 10 10 4 8 4 8
24 26 27 27 25 21 24 25 29 20 15 12 14 6 18 21 18 16 29 27 17 17 20 13 17 15 13 10 12 8 8 6 4 4 3 5 5 12 15 6 6 10 9 10
24 25 26 27 26 27 31 31 16 11 10 13 16 15 20 21 20 22 23 34 13 10 7 6 5 7 11 9 5 5 8 7 3 3 2 4 6 4 6 15 6 11 5 7
26 27 28 27 29 29 31 34 33 13 5 16 18 19 21 23 24 21 21 16 40 33 19 4 4 1 2 1 5 2 2 6 3 5 5 5 4 6 8 8 9 19 20 8
25 27 29 29 29 29 29 35 35 21 4 12 19 14 28 15 14 13 23 24 18 5 2 6 8 6 7 5 3 4 4 5 4 4 5 8 8 4 10 5 6 8 21 10
26 27 28 28 27 28 28 32 31 26 10 15 23 11 4 16 20 7 9 24 17 17 2 7 6 13 5 8 13 7 4 3 6 4 4 7 6 6 11 6 7 8 25 23
24 25 25 24 26 28 26 30 30 28 6 18 20 33 24 20 7 7 4 9 6 7 5 4 8 5 9 6 7 9 8 7 5 3 3 7 11 7 9 7 5 10 19 27
22 23 24 25 24 25 23 28 26 25 24 13 15 31 38 33 28 20 10 2 10 9 4 5 3 3 2 11 7 2 5 7 8 9 7 5 29 6 17 7 8 11 19 25
22 21 22 20 20 21 21 25 24 19 16 14 21 30 29 32 28 28 9 8 14 13 23 7 3 6 4 6 5 5 5 4 4 4 8 10 21 21 22 9 7 11 15 21
21 19 19 18 18 19 19 23 23 23 6 3 9 16 33 24 33 33 32 29 12 7 30 4 3 2 2 5 5 6 5 10 8 5 4 3 12 25 27 22 11 12 16 19
18 19 17 15 16 17 16 20 23 21 15 2 6 15 13 22 30 30 26 23 32 15 5 4 6 4 2 0 1 4 7 7 10 6 11 10 11 36 29 28 27 17 18 19
17 17 15 15 14 12 12 7 20 24 23 6 3 6 15 16 22 30 37 29 20 25 7 6 8 6 5 3 5 5 27 21 28 7 29 34 18 11 30 32 34 23 21 19
15 13 15 13 11 15 17 6 2 9 26 5 2 3 6 16 19 22 26 27 20 18 9 7 6 4 5 2 11 5 26 34 27 29 22 14 16 9 15 30 24 31 25 21
13 13 12 10 11 14 19 24 14 5 22 9 2 3 3 14 9 7 20 12 15 15 6 5 7 7 3 5 7 17 23 31 32 34 25 12 25 23 16 22 23 26 31 27
9 10 9 9 8 8 13 12 13 20 14 2 3 4 4 10 7 9 11 11 3 5 5 4 10 6 7 6 8 25 26 22 30 32 33 24 14 16 20 21 22 22 26 31
7 7 5 5 7 11 7 6 4 9 8 8 2 2 3 6 3 1 2 3 2 4 5 10 4 8 17 11 12 22 31 34 25 29 21 25 24 20 17 22 22 19 20 23
6 5 6 6 7 5 7 7 6 6 3 9 9 17 5 6 2 2 6 2 3 3 4 8 6 7 20 30 25 18 9 10 17 21 25 32 31 29 28 25 24 23 20 20
4 6 5 6 6 6 3 3 3 4 6 7 5 10 10 8 5 1 4 3 2 5 4 4 4 4 18 40 40 44 36 25 23 22 23 30 29 28 29 29 29 28 26 26
7 4 4 5 5 4 5 6 3 3 3 7 10 8 10 5 6 2 4 5 5 3 2 4 4 4 20 29 43 52 61 61 51 43 38 38 36 38 36 34 30 28 28 27
2 3 4 4 4 4 5 4 3 4 6 11 19 6 4 6 5 3 4 2 2 3 4 5 3 16 30 35 40 37 43 46 51 54 53 50 48 38 37 38 34 31 29 26
4 4 4 5 5 4 2 6 5 9 12 19 12 4 3 3 3 4 3 3 4 5 3 3 6 10 13 9 8 16 24 26 30 36 40 45 47 50 45 37 34 31 29 26
4 5 2 6 4 3 4 8 12 11 16 14 7 3 4 4 3 4 6 5 4 3 3 8 16 16 12 14 13 17 16 17 22 25 25 31 40 46 50 50 38 31 28 26
4 4 9 12 11 7 6 6 10 8 13 2 2 5 4 3 3 4 4 3 2 2 16 15 14 16 15 6 6 10 12 15 17 15 17 22 22 31 34 35 38 40 30 24
Wind_Direction
280 285 282 283 283 290 284 280 253 275 255 199 197 199 217 285 259 256 259 219 210 180 175 175 195 203 240 170 142 157 191 132 167 198 233 176 171 172 152 128 212 169 153 273
268 272 273 275 279 276 275 258 260 263 259 235 235 259 235 236 250 252 234 242 202 196 174 184 195 187 342 167 158 160 179 181 96 7 356 307 207 190 135 111 96 193 146 259
263 265 269 272 273 269 262 256 264 238 224 244 267 235 229 220 228 256 254 319 239 168 188 248 173 155 113 182 175 161 133 142 165 186 187 141 192 178 170 139 146 177 221 244
260 262 264 273 270 261 255 236 231 231 253 225 229 235 235 223 208 240 267 207 246 244 178 123 145 129 122 67 153 109 138 192 169 225 167 151 184 173 176 196 182 184 223 203
257 259 263 268 264 259 250 247 202 219 252 262 267 232 250 238 226 235 216 236 225 248 227 194 188 150 194 182 193 155 156 181 150 229 205 204 228 218 194 213 207 265 256 258
260 265 266 266 262 249 250 253 248 241 246 256 254 256 230 232 228 225 237 223 234 247 258 298 286 191 181 179 159 162 148 136 131 236 146 131 282 221 202 184 193 190 213 226
260 261 264 262 259 247 247 242 243 230 238 233 245 265 238 240 235 230 217 226 224 218 290 240 109 101 83 104 61 134 144 128 121 154 136 225 238 150 175 206 208 212 223 188
266 267 267 263 258 252 246 247 236 239 243 235 239 248 256 241 237 237 239 261 211 224 249 296 155 336 90 65 28 106 117 131 129 153 197 286 250 195 156 168 257 204 219 188
272 269 266 262 257 254 249 247 245 236 226 231 232 244 223 239 244 228 234 231 214 165 238 213 214 195 177 183 104 34 82 67 121 145 167 211 227 181 161 135 291 202 199 168
272 268 265 260 256 253 247 247 245 241 263 252 221 215 258 223 224 226 197 211 204 194 164 211 217 220 174 162 163 166 128 84 167 163 209 283 240 157 146 129 234 169 184 171
279 271 264 259 255 250 243 248 246 233 231 256 232 231 233 220 268 248 161 173 182 160 151 232 217 213 200 121 158 166 154 145 173 135 153 248 157 108 165 215 159 168 178 185
281 271 263 255 255 250 242 246 249 250 239 257 266 241 243 240 239 223 250 223 153 167 147 218 231 213 178 169 206 110 194 184 171 180 199 223 179 191 193 188 170 171 179 187
284 279 265 253 257 252 245 245 246 255 228 255 245 240 240 227 228 218 193 223 193 189 201 196 221 238 144 161 211 115 236 163 168 123 211 220 210 207 199 203 188 184 181 183
286 277 268 258 257 251 245 241 244 240 225 250 270 263 234 238 223 218 223 245 251 234 211 253 141 231 299 213 170 171 178 147 165 253 287 69 235 223 211 210 203 189 183 189
286 266 269 263 255 251 247 245 244 243 228 287 278 315 287 238 230 215 211 222 241 256 223 206 222 185 196 344 31 193 190 167 184 206 187 187 209 220 215 208 212 202 189 185
281 265 266 257 254 242 234 254 251 234 231 254 245 236 255 236 220 219 216 221 236 230 216 210 241 255 172 194 226 212 194 196 194 194 209 215 218 218 218 211 212 206 201 201
276 269 262 258 245 230 209 207 228 218 209 229 254 253 215 217 210 212 218 216 221 211 224 213 192 206 205 235 246 233 199 205 204 204 205 198 201 196 201 207 216 210 213 211
278 272 265 258 241 233 240 235 238 271 184 187 244 251 257 184 182 199 203 198 200 201 216 190 192 185 161 247 204 229 215 205 209 207 210 210 214 207 200 211 214 209 215 215
264 271 258 256 231 224 247 257 245 246 262 248 201 205 230 180 186 181 180 179 175 224 211 219 161 192 215 229 183 197 219 205 208 211 218 220 209 207 208 211 212 214 217 219
277 258 215 206 208 211 202 197 210 207 214 222 226 211 260 193 160 158 140 81 222 196 207 169 208 229 220 237 214 203 212 222 223 212 215 222 224 220 212 211 216 222 232 229
286 214 209 213 195 207 200 204 200 176 214 206 203 185 191 192 202 147 177 199 214 200 186 185 206 240 218 211 231 240 236 214 216 223 225 227 228 226 227 221 222 229 230 234
266 283 249 195 198 207 216 212 201 194 212 192 179 180 160 170 162 170 176 222 201 246 150 180 247 174 193 207 218 237 242 247 250 246 242 237 237 235 234 239 238 237 235 232
300 286 232 189 165 205 210 206 201 216 237 199 163 150 155 133 176 207 196 195 229 110 234 227 242 267 191 201 210 219 232 242 244 243 242 240 238 237 236 238 240 238 236 235
250 242 243 211 204 228 202 197 191 177 231 195 178 154 163 147 168 169 202 201 131 237 233 240 233 217 197 209 213 213 218 226 234 238 242 241 244 242 235 239 240 239 235 235
240 262 239 237 254 293 277 239 261 251 207 181 160 112 156 142 181 185 150 184 223 210 232 254 290 273 256 269 272 238 233 236 241 242 236 231 231 234 232 232 235 238 239 238
243 249 268 283 290 281 220 257 247 244 187 174 128 167 181 190 173 172 195 187 222 272 236 283 314 307 303 284 288 272 264 257 254 245 242 239 229 227 230 232 228 233 229 225
232 248 239 248 266 257 246 269 253 231 195 152 145 172 176 138 184 195 190 222 199 262 306 312 319 326 336 319 267 257 246 244 248 241 236 240 240 230 226 227 222 226 228 223